Regional Weather Roundup
Issued by NWS

Home | Current Version | Previous Version | Text Only | Print | Product List | Glossary On
Versions: 1 2 3 4 5 6 7 8 9 10 11 12 13 14 15 16 17 18 19 20 21 22 23 24 25 26 27 28 29 30 31 32 33 34 35 36 37 38 39 40 41 42 43 44 45 46 47 48 49 50
000
ASUS46 KPQR 281310
RWROR

OREGON REGIONAL WEATHER ROUNDUP
NATIONAL WEATHER SERVICE PORTLAND OR
600 AM PDT MON JUL 28 2014

NOTE: "FAIR" INDICATES FEW OR NO CLOUDS BELOW 12,000 FEET WITH
NO SIGNIFICANT WEATHER AND/OR OBSTRUCTIONS TO VISIBILITY.

ORZ001>013-281400-
NORTHWEST OREGON


CITY           SKY/WX    TMP DP  RH WIND       PRES   REMARKS
ASTORIA        CLOUDY    54  53  97 S6        30.10S
NEWPORT        FOG       50  48  93 CALM      30.12R VSB<1/4
PORTLAND       PTCLDY    64  55  72 NW3       30.07R
VANCOUVER WA   CLEAR     64  53  67 CALM      30.07R
SCAPPOOSE      CLEAR     65  52  62 N7        30.06R
HILLSBORO      CLEAR     55  52  89 CALM      30.07R
AURORA         CLEAR     60  56  86 CALM      30.08R
MCMINNVILLE    CLEAR     58  55  90 CALM      30.08R
SALEM          CLEAR     59  55  87 CALM      30.06R
CORVALLIS      CLEAR     57  54  88 NW5       30.08R
EUGENE         CLEAR     54  53  97 CALM      30.08R
$$

ORZ021-028-281400-
SOUTHWEST OREGON


CITY           SKY/WX    TMP DP  RH WIND       PRES   REMARKS
NORTH BEND     CLOUDY    54  54 100 NW3       30.08S VSB 1/4
BROOKINGS      SUNNY     55  54  97 CALM      30.01S
ROSEBURG       CLEAR     61  53  75 CALM      30.07R
SEXTON SUMMIT  CLEAR     69  51  52 SE6       30.16S
MEDFORD        CLEAR     65  54  67 CALM      30.06R
$$

ORZ009-041-281400-
COLUMBIA GORGE


CITY           SKY/WX    TMP DP  RH WIND       PRES   REMARKS
TROUTDALE      CLEAR     59  56  89 CALM      30.06R
THE DALLES     CLEAR     65  57  75 CALM      30.02R
$$

ORZ029>031-042>050-061>064-281400-
EASTERN OREGON


CITY           SKY/WX    TMP DP  RH WIND       PRES   REMARKS
REDMOND        CLEAR     46  37  71 SE3       30.15S
BEND           SUNNY     57  43  58 SW6       30.18S
KLAMATH FALLS  CLEAR     50  41  71 CALM      30.20S
LAKEVIEW       CLEAR     50  34  53 N3        30.25R
HERMISTON      MOCLDY    65  46  50 S3        30.00R
PENDLETON      MOCLDY    67  44  43 NW5       30.04R
JOHN DAY       PTSUNNY   68  41  36 CALM      30.17R
MEACHAM        MOCLDY    57  48  72 CALM      30.16F
LA GRANDE      MOCLDY    64  39  39 CALM      30.09S
BAKER CITY     PTCLDY    59  44  57 S7        30.14R
BURNS          PTCLDY    64  38  38 CALM      30.18R
ROME             N/A     62  31  31 CALM      30.13S
ONTARIO        PTCLDY    74  45  35 SW5       30.02R
$$



USA.gov is the U.S. government's official web portal to all federal, state and local government web resources and services.